User: anonymous   Login
Location: El Carrer d�Abaix
(41.5797°N, 2.1791°E)
Time: 03:19:06
(UTC+00:00)
Language:

STARLINK-1270 - Orbit

View from above orbital plane
View from above orbital plane
View from above satellite
View from above satellite

Ground track
Ground track

The orbit data is extracted from the following two-line orbital elements,

1 45237U 20012BM  20221.91667824 -.00019235 +00000-0 -13039-2 0  9996
2 45237 053.0024 159.0194 0001582 090.3432 139.9026 15.05597333001768
Epoch (UTC): 08 August 2020 22:00:01
Eccentricity: 0.0001582
inclination: 53.0024°
perigee height: 548 km
apogee height: 551 km
right ascension of ascending node: 159.0194°
argument of perigee: 90.3432°
revolutions per day: 15.05597333
mean anomaly at epoch: 139.9026°
orbit number at epoch: 176

The dashed part of the orbit path shows where the satellite is in the earth's shadow,  

DLR